Temperature
7 8 8 7 7 7 6 6 6 7 8 9 9 9 10 10 10 9 9 9 8 8 8 8 8 8 8 7 7 7 7 7 7 6 6 6 6 6 6 6 6 6 6 6
6 7 7 7 7 7 7 7 7 7 8 9 10 10 9 9 9 8 8 8 8 8 7 7 7 7 7 7 7 7 7 6 6 6 6 6 6 6 6 6 6 6 6 6
5 7 6 5 7 7 7 7 7 7 7 8 8 8 8 8 8 8 8 7 7 7 7 7 7 7 6 6 6 6 6 6 6 6 6 6 6 6 6 6 5 5 5 5
4 5 4 7 9 9 8 7 7 7 8 8 8 8 8 8 7 7 7 7 7 7 6 7 7 6 6 6 6 6 6 6 6 5 5 6 5 6 6 5 5 5 5 5
4 4 5 8 8 8 7 7 7 7 7 8 8 7 7 7 7 6 6 6 6 6 6 6 6 6 6 6 6 6 5 5 5 5 5 5 5 5 5 5 5 5 5 5
4 4 4 8 7 8 7 6 7 7 7 7 7 5 6 7 6 6 6 5 5 5 6 6 6 6 6 5 5 5 5 5 5 5 5 5 5 5 5 4 5 5 4 4
3 4 5 7 7 7 5 6 7 7 7 7 6 5 6 6 6 5 5 5 5 5 5 5 5 5 5 5 5 5 4 4 5 5 4 4 4 4 4 4 4 4 4 4
3 3 4 7 6 5 6 7 7 7 6 6 6 6 5 5 5 5 5 4 4 4 4 4 4 4 4 4 4 4 4 4 4 4 4 4 4 4 4 4 3 3 3 3
4 5 7 7 7 7 7 6 6 6 6 5 5 5 5 4 4 4 4 4 4 4 4 4 4 4 4 4 4 4 4 4 4 4 4 4 3 3 3 3 3 3 3 3
4 5 7 7 7 7 6 6 5 5 5 5 4 4 4 4 4 4 4 4 3 3 3 3 3 3 3 3 3 3 3 3 3 3 3 3 3 3 3 3 3 3 3 3
4 5 6 7 7 6 6 5 5 5 4 4 4 4 3 3 3 3 3 3 3 3 3 3 3 3 3 3 3 3 3 3 3 3 3 3 3 3 3 3 3 3 3 3
4 5 5 5 6 5 5 4 4 4 4 4 3 3 3 3 3 3 3 3 3 2 2 2 2 2 2 2 2 2 2 2 2 2 2 2 2 2 2 2 2 2 2 2
5 5 5 5 5 4 4 4 4 3 3 3 3 3 2 2 2 2 2 2 2 2 2 2 2 2 2 2 2 2 2 2 2 2 2 2 2 2 2 2 2 2 2 2
4 4 4 4 4 3 3 3 3 3 3 2 2 2 2 2 2 2 2 2 2 2 2 2 2 2 2 2 2 2 2 2 2 2 2 2 1 1 1 1 1 1 2 1
3 3 3 3 3 2 2 2 2 2 2 2 2 1 1 1 1 1 1 1 1 1 1 1 1 2 2 1 1 1 1 1 2 1 1 1 1 1 1 1 1 1 1 1
2 2 2 2 1 1 1 1 1 1 1 1 1 1 1 1 1 1 1 1 1 1 1 1 1 1 1 1 1 1 1 1 1 1 1 1 1 1 1 1 0 0 0 1
1 1 1 0 0 0 0 0 0 0 0 0 0 0 0 0 1 1 1 0 0 0 1 1 1 1 1 1 1 1 1 1 1 1 1 1 0 0 0 0 0 0 0 0
1 0 0 -0 -0 -0 -0 -0 -0 -0 -0 -0 -0 -0 -0 -0 -0 -0 -0 -0 -0 -0 0 0 0 0 0 0 0 0 0 0 0 0 0 0 0 0 -0 -0 -0 -0 -0 -0
0 0 -0 -0 -1 -1 -1 -1 -1 -1 -1 -0 -0 -1 -1 -1 -1 -1 -1 -1 -1 -1 0 0 -0 -0 -0 -0 -0 -0 -0 -0 -0 -0 -0 -0 -0 -0 -1 -1 -1 -1 -1 -1
-1 -1 -1 -1 -1 -1 -1 -1 -1 -1 -1 -1 -1 -1 -1 -1 -1 -1 -1 -1 -1 -1 -1 -1 -1 -1 -1 -1 -1 -1 -1 -1 -1 -1 -1 -1 -1 -1 -1 -1 -1 -1 -1 -1
-1 -1 -1 -1 -1 -1 -1 -1 -1 -1 -1 -1 -2 -2 -2 -2 -2 -2 -2 -2 -1 -1 -1 -1 -1 -1 -1 -1 -1 -1 -1 -1 -1 -1 -1 -1 -1 -1 -1 -1 -1 -1 -1 -1
-1 -1 -1 -2 -2 -2 -2 -2 -2 -2 -2 -2 -2 -2 -2 -2 -2 -2 -2 -2 -2 -2 -2 -2 -1 -1 -1 -1 -2 -2 -1 -1 -1 -1 -1 -1 -1 -1 -1 -1 -1 -1 -1 -1
-2 -2 -2 -2 -2 -2 -2 -2 -2 -2 -2 -2 -2 -2 -2 -2 -2 -2 -2 -2 -2 -2 -2 -2 -2 -2 -2 -2 -2 -2 -2 -2 -2 -2 -1 -1 -1 -1 -1 -1 -2 -2 -2 -2
-2 -2 -2 -2 -2 -2 -2 -2 -2 -2 -2 -2 -2 -2 -2 -2 -2 -2 -3 -3 -2 -3 -3 -2 -2 -2 -2 -2 -2 -2 -2 -2 -2 -2 -2 -2 -2 -2 -2 -2 -2 -2 -2 -2
-2 -2 -2 -2 -2 -2 -2 -2 -3 -3 -3 -2 -2 -3 -3 -3 -3 -3 -3 -3 -3 -3 -3 -3 -3 -3 -3 -2 -2 -2 -2 -2 -2 -2 -2 -2 -2 -2 -2 -2 -2 -2 -2 -2
-2 -3 -3 -3 -3 -3 -3 -3 -3 -3 -3 -3 -3 -3 -3 -3 -3 -3 -3 -3 -3 -3 -3 -3 -3 -3 -3 -3 -2 -2 -2 -2 -2 -2 -2 -2 -3 -3 -3 -3 -3 -3 -3 -3
-3 -3 -3 -3 -3 -3 -3 -3 -3 -3 -3 -3 -3 -3 -3 -3 -3 -4 -4 -4 -4 -4 -4 -3 -3 -3 -3 -3 -3 -3 -3 -3 -3 -3 -3 -3 -3 -3 -3 -3 -3 -3 -3 -3
Wind_Speed
12 12 11 13 13 11 13 12 11 11 12 12 8 7 7 5 4 4 5 4 4 4 5 4 4 4 5 5 5 5 6 7 7 7 6 5 5 5 5 5 5 5 5 5
10 11 13 16 17 16 16 16 18 17 17 12 8 5 5 6 4 5 5 5 6 6 5 5 5 5 5 5 5 5 6 7 7 6 6 6 6 5 5 5 5 5 5 5
7 7 9 11 12 14 10 10 11 14 11 6 5 5 5 5 4 5 5 6 6 6 6 6 6 5 6 6 5 5 6 6 6 6 6 6 6 6 6 6 6 6 6 5
5 5 9 7 1 3 7 7 7 7 6 5 5 5 4 3 4 5 6 7 7 7 7 6 5 5 5 5 5 5 6 6 6 6 6 6 6 7 7 6 6 6 6 6
4 6 10 8 4 4 4 5 5 7 6 5 5 5 4 2 3 5 6 7 7 7 7 6 6 5 5 5 5 5 6 6 6 6 6 6 7 7 6 6 6 6 6 6
6 6 7 4 1 1 1 4 1 2 3 4 3 4 5 5 6 7 7 7 7 7 7 7 6 4 4 6 6 7 7 7 6 6 6 7 7 7 6 6 6 6 6 6
11 9 9 5 2 3 3 4 2 1 2 3 4 6 7 7 7 7 8 8 8 8 7 7 6 5 6 6 7 7 6 5 6 6 7 7 6 5 5 5 5 5 5 5
7 9 10 3 4 4 4 2 3 3 4 5 7 8 8 8 8 8 8 9 8 7 7 7 6 6 7 8 7 6 5 6 6 6 6 5 5 5 5 5 5 5 5 5
8 9 4 3 3 4 3 4 5 5 6 7 8 9 8 9 9 8 9 8 7 7 8 7 6 6 8 8 6 5 5 6 6 6 6 6 6 6 5 6 6 5 5 6
8 10 8 8 8 7 5 6 6 6 7 8 10 10 10 9 9 8 8 8 7 7 8 8 7 7 7 7 6 5 6 7 6 6 6 6 6 6 6 6 6 6 6 6
12 12 10 10 8 6 6 6 7 8 8 9 10 10 10 9 9 8 8 7 7 7 8 9 8 8 7 6 6 6 7 6 6 6 6 6 6 6 7 7 8 8 7 6
13 10 9 10 8 8 8 8 8 9 9 8 9 10 10 9 8 8 8 8 8 8 8 9 8 8 7 7 6 7 6 6 5 5 5 5 5 5 7 8 9 10 9 7
15 12 11 12 10 8 8 8 8 8 8 9 9 9 9 9 8 8 8 9 9 9 9 9 9 9 8 7 7 7 7 6 5 5 5 6 6 6 5 5 7 9 10 9
10 10 11 10 10 8 8 8 8 8 9 9 8 8 8 9 8 9 9 9 9 9 9 9 9 10 8 7 7 7 8 8 7 6 6 6 6 6 6 5 5 4 7 10
9 8 9 8 8 7 6 7 7 8 8 8 8 8 9 9 10 10 10 9 9 9 10 9 10 10 8 7 7 8 7 6 6 6 6 6 6 6 6 6 6 5 3 5
7 7 7 7 7 7 7 8 8 9 9 9 9 9 9 10 10 10 9 8 9 11 10 10 11 10 7 7 7 7 7 9 7 5 5 6 6 6 6 6 6 6 6 6
5 6 6 7 7 8 8 8 9 9 9 10 10 10 10 10 10 10 10 9 9 10 10 10 10 9 7 7 7 6 6 7 9 6 6 6 6 7 6 6 7 7 6 7
5 6 7 8 8 9 9 9 9 9 10 10 10 10 10 10 11 11 10 9 9 10 10 9 9 8 7 7 6 5 5 5 6 6 6 6 6 6 6 7 7 7 5 6
4 5 6 7 8 8 9 9 9 9 10 9 9 10 11 11 11 10 9 9 10 11 10 8 9 7 7 7 7 5 5 6 6 6 6 8 7 6 6 6 6 6 6 6
6 6 7 8 9 9 10 10 10 10 10 9 10 11 11 11 10 9 9 10 10 9 9 8 7 6 6 6 7 5 5 6 7 6 6 6 6 6 6 6 6 6 6 6
8 8 9 9 10 10 10 10 10 11 11 10 10 11 12 12 10 9 9 11 10 8 7 9 6 6 5 6 6 5 5 6 6 7 6 6 6 6 6 6 6 6 6 6
8 9 10 10 10 11 10 10 10 11 12 11 11 11 11 11 10 10 10 10 10 10 7 6 5 7 7 7 5 5 6 6 6 6 6 6 7 7 6 6 6 6 6 6
10 10 11 11 11 12 12 11 11 11 11 12 11 11 11 11 9 9 11 8 6 9 7 6 8 10 10 6 5 6 6 6 6 6 6 6 6 6 6 6 6 6 6 6
11 11 11 11 10 11 13 13 11 10 11 11 11 11 11 10 9 8 8 10 11 11 7 8 11 11 9 5 5 5 6 6 6 6 6 6 5 5 6 6 5 5 6 6
11 11 11 11 11 11 11 11 11 11 10 10 10 10 9 8 8 8 7 8 10 10 7 8 10 10 7 5 5 5 5 6 5 5 5 5 5 5 5 5 5 5 5 5
11 11 11 11 10 10 9 8 9 9 8 9 9 7 7 6 7 7 7 7 8 9 7 6 6 6 5 5 5 5 5 5 5 5 5 5 5 5 5 5 6 5 5 5
10 10 9 9 9 8 8 8 9 10 9 9 10 8 7 6 6 6 7 6 6 6 5 5 4 4 4 4 4 4 4 3 3 4 4 4 4 4 5 5 5 4 4 5
Wind_Direction
269 280 278 267 260 243 233 234 243 256 263 273 292 305 309 306 311 314 307 304 299 291 282 273 270 265 254 245 234 220 216 220 226 228 227 229 227 224 223 223 226 226 228 226
276 265 265 267 258 249 246 243 248 260 270 274 282 291 299 307 305 302 307 308 303 294 288 280 274 268 262 253 242 226 223 225 225 225 223 225 224 222 221 220 221 222 224 221
273 283 295 269 250 234 231 229 232 247 257 286 302 311 312 312 309 303 309 310 306 301 292 282 274 268 264 252 245 235 231 231 227 223 225 226 223 220 221 221 220 222 220 209
277 290 252 247 244 215 232 244 234 251 277 300 302 304 304 313 318 317 315 309 305 300 294 285 277 271 267 258 245 238 237 234 229 225 226 225 222 223 223 221 220 220 218 209
250 263 272 269 238 203 223 262 236 243 269 293 324 327 308 331 338 311 302 297 295 294 292 286 280 269 266 263 250 242 241 239 234 225 224 224 226 227 223 221 223 219 212 205
234 247 253 262 144 80 105 261 250 217 270 297 343 308 288 325 321 308 304 298 296 298 298 291 280 269 266 262 254 249 244 237 232 225 222 226 228 226 222 218 218 213 210 203
234 246 260 265 143 112 194 249 10 352 318 312 279 264 285 301 300 296 293 292 290 291 292 287 283 273 262 260 258 255 246 236 230 224 223 227 227 222 218 214 207 205 207 206
215 233 250 195 148 199 245 323 336 323 307 295 286 289 294 293 290 291 290 288 286 287 287 286 282 273 267 262 259 252 243 240 233 226 224 223 218 220 215 208 205 204 205 211
216 233 266 187 222 254 278 292 296 295 294 290 286 284 286 286 286 286 284 285 283 281 285 284 277 270 271 270 264 252 243 242 236 228 220 212 212 215 215 210 209 209 206 213
266 265 273 272 274 272 269 277 284 286 291 292 289 288 287 285 285 285 284 283 280 279 282 284 279 272 267 271 265 251 248 245 235 226 222 214 211 209 212 213 210 209 210 212
264 274 285 272 271 279 290 289 287 285 282 283 285 284 285 286 284 283 284 281 276 273 277 280 280 276 271 267 259 253 250 245 237 224 218 217 214 214 215 218 212 210 212 205
263 268 270 279 282 283 281 280 280 281 280 278 277 281 283 282 280 279 281 280 278 274 274 277 277 275 271 263 252 245 249 243 234 225 220 217 216 227 225 221 218 215 212 207
268 278 277 282 284 281 281 283 283 280 279 283 282 279 280 280 280 279 281 280 278 275 273 275 275 273 271 263 252 242 241 238 233 226 221 217 212 215 229 232 221 218 216 213
274 280 278 280 282 286 284 285 284 281 279 277 279 280 280 280 281 280 280 278 279 279 277 274 274 272 269 261 251 244 240 234 228 226 221 217 215 215 214 215 220 227 219 214
273 274 274 283 285 288 290 292 290 285 284 282 280 279 279 280 280 280 279 280 280 278 276 274 273 273 269 259 251 245 238 231 225 222 219 217 214 211 212 211 213 215 209 208
285 286 281 280 282 288 290 291 288 285 284 283 284 282 281 278 276 276 277 276 277 277 277 275 273 272 265 257 251 247 237 231 226 222 217 216 211 209 212 210 209 208 209 206
290 290 292 291 286 285 285 284 281 280 280 280 281 283 284 283 281 280 278 274 271 272 272 270 272 271 261 254 249 243 235 231 224 223 217 216 214 213 211 211 214 214 214 204
265 271 275 276 277 281 282 281 280 279 278 277 281 282 281 280 279 280 280 280 280 279 275 270 269 267 261 255 248 238 229 228 225 224 221 218 217 215 214 215 216 215 212 204
290 288 286 284 283 283 284 284 282 280 279 280 281 280 278 277 277 279 281 280 279 281 282 274 269 264 260 254 248 237 228 226 227 224 220 221 221 217 215 215 215 213 205 200
293 291 288 286 285 282 283 283 283 283 281 280 281 282 282 280 278 279 280 276 271 271 274 274 271 264 257 250 242 235 228 226 225 224 220 217 217 218 217 214 212 211 208 206
282 281 280 281 283 281 278 279 280 280 281 279 277 278 279 280 278 277 277 280 278 272 269 268 266 262 254 247 240 237 230 226 224 223 221 220 218 218 217 214 214 213 210 207
280 280 281 282 283 283 280 277 275 277 280 279 275 274 276 278 277 275 267 267 274 273 272 264 262 259 257 253 239 235 230 226 224 223 221 217 215 216 215 213 213 213 210 205
277 278 279 279 279 282 283 278 275 275 275 274 274 274 273 273 272 272 278 273 268 266 267 263 262 261 260 255 240 234 231 228 225 224 222 219 215 212 211 209 210 209 209 206
277 277 277 278 278 280 282 282 280 276 273 272 271 268 269 275 276 266 263 270 271 271 267 263 261 261 260 255 242 236 233 230 226 223 219 215 212 208 206 205 207 208 208 204
272 273 274 276 277 277 276 278 280 278 275 274 271 267 264 259 263 271 271 269 269 269 268 264 259 257 253 247 239 237 234 230 226 217 210 207 206 205 203 201 202 203 205 204
269 271 272 270 269 271 272 273 275 277 277 278 278 273 270 266 264 267 269 267 264 266 265 263 255 250 244 241 237 235 234 230 223 216 207 203 202 201 200 200 198 200 202 201
266 266 269 273 271 265 263 264 268 272 272 272 277 275 271 271 271 270 268 268 267 263 259 255 249 243 242 241 236 230 223 214 206 202 199 199 196 195 195 194 195 194 191 191
Height
1497 1493 1493 1492 1490 1489 1492 1491 1490 1478 1471 1465 1465 1464 1463 1463 1462 1461 1460 1459 1458 1457 1456 1455 1453 1452 1451 1450 1449 1448 1447 1446 1445 1445 1445 1444 1444 1444 1444 1444 1444 1444 1444 1444
1497 1490 1488 1485 1480 1480 1479 1478 1476 1472 1468 1462 1462 1461 1460 1460 1459 1458 1457 1456 1455 1454 1452 1451 1449 1448 1447 1445 1444 1444 1442 1441 1440 1440 1440 1440 1439 1439 1439 1439 1439 1439 1439 1439
1497 1487 1486 1482 1469 1469 1468 1465 1466 1467 1463 1459 1459 1459 1458 1457 1456 1456 1455 1454 1452 1450 1448 1446 1445 1443 1442 1440 1440 1438 1437 1436 1435 1435 1435 1435 1435 1434 1434 1434 1434 1434 1434 1435
1497 1493 1492 1468 1458 1458 1459 1459 1459 1458 1457 1457 1457 1456 1455 1455 1454 1453 1452 1450 1448 1446 1444 1442 1440 1439 1437 1436 1434 1433 1432 1431 1430 1430 1429 1429 1429 1429 1429 1429 1429 1429 1429 1430
1496 1490 1476 1461 1457 1457 1458 1457 1454 1454 1455 1455 1454 1453 1452 1452 1451 1450 1449 1447 1445 1443 1440 1438 1435 1434 1432 1430 1429 1428 1427 1426 1425 1425 1424 1424 1423 1423 1424 1424 1424 1424 1425 1425
1491 1488 1479 1458 1455 1453 1456 1457 1451 1451 1452 1452 1452 1455 1451 1449 1448 1447 1445 1443 1440 1438 1435 1433 1431 1429 1427 1425 1424 1422 1422 1421 1420 1420 1419 1418 1418 1418 1418 1418 1418 1419 1419 1420
1486 1481 1467 1454 1453 1454 1461 1456 1450 1449 1450 1450 1450 1451 1448 1446 1444 1442 1440 1438 1435 1433 1430 1428 1426 1424 1422 1420 1418 1417 1416 1415 1415 1414 1414 1413 1413 1413 1413 1413 1413 1414 1414 1415
1478 1477 1466 1452 1453 1455 1452 1449 1448 1448 1447 1447 1446 1445 1443 1441 1439 1437 1434 1432 1430 1427 1424 1422 1421 1419 1416 1414 1413 1412 1411 1410 1409 1408 1408 1408 1408 1408 1408 1408 1408 1408 1409 1409
1462 1457 1449 1448 1448 1447 1447 1446 1445 1445 1444 1443 1441 1439 1437 1435 1433 1431 1429 1426 1424 1422 1419 1417 1415 1413 1411 1409 1408 1406 1405 1404 1403 1402 1402 1402 1402 1402 1402 1402 1402 1403 1403 1404
1453 1447 1445 1444 1443 1443 1443 1442 1441 1440 1440 1438 1436 1434 1432 1429 1427 1425 1423 1421 1418 1416 1413 1411 1409 1408 1405 1404 1402 1400 1399 1398 1397 1397 1396 1396 1396 1396 1397 1397 1397 1397 1398 1398
1447 1443 1442 1439 1439 1439 1438 1437 1436 1435 1434 1432 1430 1428 1426 1423 1421 1419 1417 1415 1412 1410 1407 1405 1403 1401 1399 1398 1396 1394 1393 1392 1391 1391 1391 1390 1390 1391 1391 1391 1392 1393 1393 1394
1441 1438 1438 1434 1434 1434 1432 1431 1430 1428 1426 1425 1424 1422 1419 1417 1415 1413 1411 1408 1406 1404 1401 1399 1397 1395 1393 1392 1390 1388 1387 1386 1386 1385 1385 1385 1385 1385 1385 1387 1387 1388 1389 1390
1433 1432 1431 1428 1428 1427 1426 1424 1423 1422 1420 1419 1417 1415 1413 1410 1408 1406 1404 1402 1400 1397 1395 1392 1390 1388 1386 1385 1384 1382 1381 1380 1380 1379 1379 1379 1379 1379 1379 1381 1382 1382 1383 1384
1427 1426 1423 1422 1421 1421 1419 1418 1416 1415 1414 1412 1410 1408 1406 1404 1401 1400 1397 1395 1393 1391 1388 1386 1383 1381 1380 1378 1377 1376 1375 1374 1374 1373 1373 1373 1373 1374 1374 1375 1375 1376 1378 1379
1421 1420 1418 1416 1415 1414 1413 1412 1410 1409 1407 1406 1404 1402 1400 1397 1395 1393 1391 1388 1386 1383 1381 1378 1376 1374 1373 1371 1370 1369 1368 1368 1367 1367 1367 1368 1368 1368 1369 1369 1370 1370 1372 1373
1415 1414 1412 1411 1410 1409 1408 1406 1405 1403 1401 1399 1397 1395 1393 1391 1388 1386 1383 1381 1379 1376 1373 1371 1368 1367 1365 1364 1363 1362 1361 1361 1361 1361 1361 1361 1362 1362 1363 1363 1364 1365 1366 1367
1410 1409 1408 1406 1405 1403 1402 1401 1399 1397 1395 1393 1391 1389 1387 1384 1381 1378 1376 1374 1372 1369 1366 1364 1361 1359 1358 1357 1356 1355 1354 1354 1354 1354 1354 1355 1356 1356 1357 1358 1358 1359 1360 1362
1406 1405 1404 1402 1400 1398 1397 1395 1393 1391 1389 1386 1385 1382 1380 1377 1374 1371 1369 1366 1364 1361 1358 1356 1354 1352 1351 1350 1349 1348 1348 1347 1347 1347 1348 1349 1349 1350 1351 1352 1352 1353 1354 1356
1402 1400 1399 1397 1396 1394 1391 1389 1387 1384 1382 1380 1378 1375 1372 1370 1367 1364 1362 1359 1356 1353 1350 1349 1347 1345 1344 1343 1342 1342 1341 1341 1341 1341 1342 1342 1343 1344 1345 1346 1347 1348 1349 1351
1398 1396 1394 1392 1390 1388 1385 1383 1380 1378 1375 1373 1370 1367 1365 1362 1360 1357 1354 1351 1348 1346 1344 1342 1341 1339 1337 1336 1336 1335 1335 1334 1335 1335 1336 1336 1337 1338 1339 1340 1341 1343 1344 1345
1393 1391 1388 1386 1384 1381 1379 1376 1373 1370 1368 1366 1363 1360 1357 1354 1352 1350 1346 1343 1340 1339 1337 1335 1334 1332 1331 1330 1330 1329 1328 1328 1329 1329 1330 1331 1332 1333 1334 1335 1336 1337 1338 1340
1387 1384 1382 1379 1377 1374 1371 1369 1366 1363 1360 1358 1355 1352 1349 1346 1344 1341 1338 1336 1333 1332 1330 1328 1327 1326 1325 1324 1323 1323 1323 1323 1323 1323 1324 1325 1326 1327 1328 1329 1331 1332 1333 1334
1380 1378 1375 1372 1369 1366 1363 1361 1358 1356 1352 1350 1347 1344 1341 1339 1336 1334 1330 1328 1327 1325 1324 1322 1321 1320 1319 1318 1317 1317 1317 1317 1317 1318 1318 1319 1320 1321 1323 1324 1325 1326 1328 1329
1372 1370 1367 1364 1362 1358 1355 1352 1350 1347 1344 1341 1339 1336 1334 1331 1328 1326 1324 1322 1320 1319 1317 1315 1314 1313 1313 1312 1311 1311 1311 1311 1312 1312 1313 1314 1315 1316 1317 1319 1320 1321 1323 1324
1364 1361 1359 1356 1353 1350 1347 1344 1341 1338 1336 1333 1330 1328 1326 1324 1321 1318 1317 1315 1313 1312 1310 1309 1308 1307 1307 1306 1306 1306 1306 1306 1306 1307 1308 1309 1310 1311 1312 1314 1315 1316 1318 1319
1355 1353 1350 1347 1345 1342 1339 1336 1334 1330 1328 1325 1322 1320 1318 1316 1314 1312 1310 1308 1307 1305 1304 1303 1302 1301 1301 1301 1301 1301 1301 1301 1302 1302 1303 1304 1305 1307 1308 1309 1310 1312 1313 1315
1346 1344 1341 1338 1336 1334 1331 1329 1326 1323 1321 1318 1315 1313 1311 1309 1307 1305 1303 1302 1300 1299 1298 1297 1297 1296 1296 1296 1296 1296 1296 1297 1297 1298 1299 1300 1301 1302 1304 1305 1306 1308 1309 1311